Find Starlink 30333

NORAD ID: 57702 Int'l Des: 2023-129 Owner: SPXS Country: US Constellation: starlink operational
LEOCIRCULAR

Current View

Loading 3D Globe...

About Starlink 30333

Starlink 30333 (NORAD 57702) is a starlink constellation satellite (v2 mini) launched Aug 27, 2023 by SPXS of US. It operates in LEO, CIRCULAR orbit with a mass of 730.00 kg.

About Starlink 30333

Description loading...

Upcoming Passes

Passes for default location (London). Set your location on the main map for personalized predictions.

Altitude History

Loading altitude history...

Two-Line Element Set

1 57702U 23129E 26171.26175752 -.00005198 00000-0 -17941-3 0 9990
2 57702 43.0010 258.2960 0001313 282.3431 77.7274 15.27596797156378
Epoch: Jun 20, 2026 • Age: 48 hours

Current Status

Altitude 493.6 km
Velocity 7.62 km/s
Sub-Earth Point -38.50°S, 178.75°E
Launch Date Aug 27, 2023
Age 2.8 years
Type internet

Technical Details

Classification Payload
Mass 730.00 kg
Dry Mass 700.00 kg
Total Mass 730.00 kg
Length 0.30 m
Diameter 4.10 m
Span 29.00 m
Shape Box + pan
Manufacturer SPXS
Bus Type Starlink V2M
Phase Status In Orbit
Owner/State SPXS/US

Most Searched